This demonstration page uses our WeatherBlox Daily Observations layout. Learn more.

Left ArrowRight Arrow

Hourly Observations for January 3, 2016

Temp ( °F °C ) Dew Point ( °F °C ) Humidity (%) Winds ( mph kmh ) Pressure ( in mb ) Visibility ( mi km ) Precip ( " mm )
12:53 am 00:53 Cloudy 37 2.8 33 0.6 86 86 W 6 9 30.32 1027 10 16 0.00 0.00
1:53 am 01:53 Mostly Cloudy 35 1.7 32 0 89 89 W 7 11 30.33 1027 8 13 0.00 0.00
2:31 am 02:31 Partly Cloudy 34 1.1 31 -0.6 89 89 N 6 9 30.42 1030 8 13 0.00 0.00
2:53 am 02:53 Clear with Mist and Fog 32 0 29 -1.7 88 88 N 6 9 30.32 1027 6 10 0.00 0.00
3:53 am 03:53 Clear with Mist and Fog 30 -1.1 27 -2.8 88 88 N 5 7 30.32 1027 5 8 0.00 0.00
4:53 am 04:53 Clear with Mist and Fog 28 -2.2 26 -3.3 92 92 N 6 9 30.32 1027 6 10 0.00 0.00
5:53 am 05:53 Clear with Mist and Fog 28 -2.2 26 -3.3 92 92 N 5 7 30.31 1027 6 10 0.00 0.00
6:53 am 06:53 Clear with Mist and Fog 27 -2.8 24 -4.4 89 89 N 6 9 30.33 1027 6 10 0.00 0.00
7:53 am 07:53 Clear 28 -2.2 25 -3.9 88 88 N 7 11 30.34 1028 10 16 0.00 0.00
8:53 am 08:53 Sunny 30 -1.1 27 -2.8 88 88 NW 5 7 30.36 1028 9 14 0.00 0.00
9:53 am 09:53 Sunny 34 1.1 29 -1.7 82 82 NW 5 7 30.36 1028 10 16 0.00 0.00
10:53 am 10:53 Sunny 40 4.4 29 -1.7 65 65 NNW 6 9 30.36 1028 10 16 0.00 0.00
11:53 am 11:53 Sunny 43 6.1 29 -1.7 58 58 NNW 3 6 30.35 1028 10 16 0.00 0.00
12:53 pm 12:53 Sunny 48 8.9 29 -1.7 48 48 NNW 5 7 30.29 1026 10 16 0.00 0.00
1:53 pm 13:53 Sunny 50 10 29 -1.7 44 44 NNW 5 7 30.26 1025 10 16 0.00 0.00
2:53 pm 14:53 Sunny 52 11.1 28 -2.2 40 40 N 6 9 30.24 1024 10 16 0.00 0.00
3:53 pm 15:53 Sunny 54 12.2 26 -3.3 34 34 Calm 30.24 1024 10 16 0.00 0.00
4:53 pm 16:53 Sunny 52 11.1 24 -4.4 34 34 Calm 30.25 1024 10 16 0.00 0.00
5:53 pm 17:53 Sunny 50 10 24 -4.4 36 36 N 5 7 30.25 1025 10 16 0.00 0.00
6:53 pm 18:53 Clear 40 4.4 27 -2.8 60 60 N 7 11 30.28 1026 10 16 0.00 0.00
7:53 pm 19:53 Clear 36 2.2 27 -2.8 70 70 N 8 13 30.31 1027 10 16 0.00 0.00
8:53 pm 20:53 Clear 34 1.1 27 -2.8 76 76 N 8 13 30.33 1027 10 16 0.00 0.00
9:53 pm 21:53 Clear 32 0 26 -3.3 79 79 N 7 11 30.32 1027 10 16 0.00 0.00
10:53 pm 22:53 Clear 31 -0.6 27 -2.8 85 85 N 6 9 30.31 1026 10 16 0.00 0.00
11:53 pm 23:53 Clear 31 -0.6 26 -3.3 82 82 NNW 8 13 30.31 1026 10 16 0.00 0.00

Powered by AerisWeather